Latest Coastal Weather Observations for Rundle Island

IDQ60701

Issued at 4:51 am EST Saturday 7 May 2016 (issued every 10 minutes, with the page automatically refreshed every 10 minutes)

About coastal observations | Map of coastal stations | Coastal observations for QLD | Marine services | Other Formats
Station Details ID: 039322 Name: RUNDLE ISLAND Lat: -23.53 Lon: 151.28 Height: 19.8 m
Data from the previous 72 hours. | See also: Recent months at Rundle Island
Date/Time
EST
Temp

°C
Wind Pressure Rain
since 9am
mm
Weather Cloud Vis
km
Sea
Height
m
Swell
Dir
 
Speed
knots
Gust
knots
hPa Trend Height
m
Period
s
Dir
07/04:30am 22.3 S 14 16 1015.8 - - - - - - - - -
07/04:00am 22.4 S 12 14 1015.8 - - - - - - - - -
07/03:30am 22.7 SSE 13 15 1015.8 - - - - - - - - -
07/03:00am 22.7 S 12 14 1015.9 - - - - - - - - -
07/02:30am 22.8 SSE 11 13 1015.9 - - - - - - - - -
07/02:00am 23.5 SE 11 13 1016.0 - - - - - - - - -
07/01:30am 23.9 ESE 11 14 1016.3 - - - - - - - - -
07/01:00am 23.7 ESE 10 13 1016.6 - - - - - - - - -
07/12:30am 23.8 ESE 10 13 1016.8 - - - - - - - - -
07/12:00am 23.8 ESE 10 13 1017.1 - - - - - - - - -
 
Date/Time
EST
Temp

°C
Wind Pressure Rain
since 9am
mm
Weather Cloud Vis
km
Sea
Height
m
Swell
Dir
 
Speed
knots
Gust
knots
hPa Trend Height
m
Period
s
Dir
06/11:30pm 23.9 ESE 12 14 1017.2 - - - - - - - - -
06/11:00pm 23.8 SE 12 14 1017.6 - - - - - - - - -
06/10:30pm 23.9 SE 11 13 1017.8 - - - - - - - - -
06/10:00pm 24.0 SE 10 13 1018.1 - - - - - - - - -
06/09:30pm 24.1 SE 11 12 1018.0 - - - - - - - - -
06/09:00pm 24.1 SE 10 12 1018.1 - - - - - - - - -
06/08:30pm 24.1 ESE 10 12 1017.6 - - - - - - - - -
06/08:00pm 24.1 ESE 11 13 1017.2 - - - - - - - - -
06/07:30pm 24.0 ESE 13 15 1017.0 - - - - - - - - -
06/07:00pm 24.2 ESE 13 15 1016.7 - - - - - - - - -
06/06:30pm 24.1 ESE 12 14 1016.6 - - - - - - - - -
06/06:00pm 23.9 ESE 11 13 1016.1 - - - - - - - - -
06/05:30pm 24.0 ESE 10 11 1016.1 - - - - - - - - -
06/05:00pm 24.0 ESE 11 12 1015.9 - - - - - - - - -
06/04:30pm 23.9 ESE 11 13 1015.7 - - - - - - - - -
06/04:00pm 23.8 ESE 10 13 1015.6 - - - - - - - - -
06/03:30pm 24.0 ESE 9 11 1015.7 - - - - - - - - -
06/03:00pm 24.1 SE 9 10 1016.1 - - - - - - - - -
06/02:30pm 23.9 SE 9 11 1015.9 - - - - - - - - -
06/02:00pm 24.1 SE 9 10 1015.8 - - - - - - - - -
06/01:30pm 23.8 SE 9 11 1016.0 - - - - - - - - -
06/01:00pm 23.6 SE 8 10 1016.4 - - - - - - - - -
06/12:30pm 24.0 SE 9 10 1016.6 - - - - - - - - -
06/12:00pm 23.9 SE 10 11 1017.2 - - - - - - - - -
06/11:30am 23.9 SE 10 12 1017.6 - - - - - - - - -
06/11:00am 23.6 SE 11 13 1017.9 - - - - - - - - -
06/10:30am 23.2 SE 12 14 1018.0 - - - - - - - - -
06/10:00am 23.5 SE 11 14 1018.6 - - - - - - - - -
06/09:30am 23.2 SSE 12 14 1018.9 - - - - - - - - -
06/09:00am 23.4 SSE 12 14 1018.8 - - - - - - - - -
06/08:30am 23.1 SSE 12 15 1018.6 - - - - - - - - -
06/08:00am 23.2 SSE 12 14 1018.2 - - - - - - - - -
06/07:30am 23.0 SSE 12 13 1017.8 - - - - - - - - -
06/07:00am 23.1 SSE 12 14 1017.4 - - - - - - - - -
06/06:30am 23.1 SSE 12 13 1017.0 - - - - - - - - -
06/06:00am 23.0 SSE 12 14 1016.5 - - - - - - - - -
06/05:30am 22.8 SSE 12 14 1016.4 - - - - - - - - -
06/05:00am 22.8 SSE 12 14 1016.2 - - - - - - - - -
06/04:30am 23.1 SE 11 12 1016.1 - - - - - - - - -
06/04:00am 23.9 ESE 11 13 1016.2 - - - - - - - - -
06/03:30am 23.9 ESE 10 12 1016.2 - - - - - - - - -
06/03:00am 23.8 ESE 11 13 1016.1 - - - - - - - - -
06/02:30am 23.9 ESE 12 14 1016.4 - - - - - - - - -
06/02:00am 23.9 ESE 12 14 1016.3 - - - - - - - - -
06/01:30am 24.0 ESE 12 14 1016.7 - - - - - - - - -
06/01:00am 24.0 ESE 11 13 1016.9 - - - - - - - - -
06/12:30am 24.0 ESE 11 13 1017.3 - - - - - - - - -
06/12:00am 24.1 ESE 11 14 1017.5 - - - - - - - - -
 
Date/Time
EST
Temp

°C
Wind Pressure Rain
since 9am
mm
Weather Cloud Vis
km
Sea
Height
m
Swell
Dir
 
Speed
knots
Gust
knots
hPa Trend Height
m
Period
s
Dir
05/11:30pm 24.1 ESE 11 13 1017.7 - - - - - - - - -
05/11:00pm 24.2 ESE 12 14 1017.7 - - - - - - - - -
05/10:30pm 24.1 ESE 13 15 1017.6 - - - - - - - - -
05/10:00pm 24.1 ESE 13 15 1017.8 - - - - - - - - -
05/09:30pm 24.1 ESE 15 16 1017.7 - - - - - - - - -
05/09:00pm 24.3 ESE 15 18 1017.8 - - - - - - - - -
05/08:30pm 24.1 E 15 18 1017.6 - - - - - - - - -
05/08:00pm 24.2 E 15 17 1017.6 - - - - - - - - -
05/07:30pm 24.1 E 14 16 1017.4 - - - - - - - - -
05/07:00pm 24.2 E 14 17 1017.1 - - - - - - - - -
05/06:30pm 24.2 E 15 17 1016.7 - - - - - - - - -
05/06:00pm 24.2 E 15 16 1016.4 - - - - - - - - -
05/05:30pm 24.2 E 15 17 1016.3 - - - - - - - - -
05/05:00pm 24.3 ESE 14 16 1016.1 - - - - - - - - -
05/04:30pm 24.4 ESE 16 17 1016.0 - - - - - - - - -
05/04:00pm 24.3 ESE 15 17 1015.9 - - - - - - - - -
05/03:30pm 24.4 ESE 14 16 1016.0 - - - - - - - - -
05/03:00pm 24.2 ESE 15 17 1016.0 - - - - - - - - -
05/02:30pm 24.0 ESE 15 18 1016.0 - - - - - - - - -
05/02:00pm 24.2 ESE 14 17 1016.2 - - - - - - - - -
05/01:30pm 24.1 ESE 14 16 1016.5 - - - - - - - - -
05/01:00pm 23.8 SE 14 17 1016.6 - - - - - - - - -
05/12:30pm 23.9 SE 13 15 1017.1 - - - - - - - - -
05/12:00pm 24.0 ESE 13 16 1017.5 - - - - - - - - -
05/11:30am 24.1 SE 14 17 1018.0 - - - - - - - - -
05/11:00am 23.4 SE 13 15 1018.5 - - - - - - - - -
05/10:30am 23.6 SSE 13 15 1018.8 - - - - - - - - -
05/10:00am 23.3 SSE 14 17 1019.0 - - - - - - - - -
05/09:30am 23.3 SSE 14 15 1019.1 - - - - - - - - -
05/09:00am 23.0 SSE 15 17 1018.9 - - - - - - - - -
05/08:30am 23.0 SSE 15 17 1018.5 - - - - - - - - -
05/08:00am 23.0 SSE 14 16 1018.3 - - - - - - - - -
05/07:30am 23.0 SSE 14 16 1018.0 - - - - - - - - -
05/07:00am 23.1 SSE 13 16 1017.8 - - - - - - - - -
05/06:30am 23.0 SSE 14 16 1017.4 - - - - - - - - -
05/06:00am 22.9 SSE 13 15 1017.1 - - - - - - - - -
05/05:30am 23.2 SSE 15 16 1016.6 - - - - - - - - -
05/05:00am 23.3 SSE 16 17 1016.1 - - - - - - - - -
05/04:30am 23.7 SSE 15 17 1015.8 - - - - - - - - -
05/04:00am 23.9 SE 13 15 1015.9 - - - - - - - - -
05/03:30am 23.9 SE 13 15 1015.9 - - - - - - - - -
05/03:00am 23.9 SE 12 14 1015.9 - - - - - - - - -
05/02:30am 23.8 SSE 12 14 1015.7 - - - - - - - - -
05/02:00am 23.8 SSE 11 13 1015.8 - - - - - - - - -
05/01:30am 24.7 ESE 9 10 1016.1 - - - - - - - - -
05/01:00am 24.7 ESE 6 8 1016.2 - - - - - - - - -
05/12:30am 24.7 ESE 7 8 1016.4 - - - - - - - - -
05/12:00am 24.8 ESE 7 9 1016.7 - - - - - - - - -
 
Date/Time
EST
Temp

°C
Wind Pressure Rain
since 9am
mm
Weather Cloud Vis
km
Sea
Height
m
Swell
Dir
 
Speed
knots
Gust
knots
hPa Trend Height
m
Period
s
Dir
04/11:30pm 24.7 E 7 8 1016.8 - - - - - - - - -
04/11:00pm 24.7 E 7 9 1017.1 - - - - - - - - -
04/10:30pm 24.7 E 7 9 1017.2 - - - - - - - - -
04/10:00pm 24.7 NE 8 9 1017.4 - - - - - - - - -
04/09:30pm 24.8 E 10 11 1017.2 - - - - - - - - -
04/09:00pm 24.8 E 11 12 1017.1 - - - - - - - - -
04/08:30pm 24.8 E 10 12 1017.0 - - - - - - - - -
04/08:00pm 24.7 E 11 13 1016.6 - - - - - - - - -
04/07:30pm 24.8 E 12 14 1016.3 - - - - - - - - -
04/07:00pm 24.7 E 14 16 1015.9 - - - - - - - - -
04/06:30pm 24.6 E 15 16 1015.3 - - - - - - - - -
04/06:00pm 24.5 E 14 16 1014.8 - - - - - - - - -
04/05:30pm 24.4 E 14 16 1014.4 - - - - - - - - -
04/05:00pm 24.5 E 13 15 1014.2 - - - - - - - - -
04/04:30pm 24.6 E 10 11 1014.1 - - - - - - - - -
04/04:00pm 24.8 E 7 8 1014.0 - - - - - - - - -
04/03:30pm 24.5 ESE 4 5 1013.8 - - - - - - - - -
04/03:00pm 24.4 ESE 6 7 1013.6 - - - - - - - - -
04/02:30pm 24.1 SE 4 5 1013.6 - - - - - - - - -
04/02:00pm 24.2 S 5 7 1013.6 - - - - - - - - -
04/01:30pm 24.5 S 5 6 1013.9 - - - - - - - - -
04/01:00pm 23.6 SSE 7 8 1014.0 - - - - - - - - -
04/12:30pm 23.3 SE 9 10 1014.6 - - - - - - - - -
04/12:00pm 23.1 SSE 12 14 1015.0 - - - - - - - - -
04/11:30am 22.6 S 16 19 1015.3 - - - - - - - - -
04/11:00am 22.7 SSW 17 21 1015.8 - - - - - - - - -
04/10:30am 24.2 SSW 9 19 1015.8 - - - - - - - - -
04/10:29am 24.3 SSW 7 19 1015.9 - - - - - - - - -
04/10:00am 26.3 SW 2 3 1016.1 - - - - - - - - -
04/09:30am 25.2 SSW 4 5 1016.3 - - - - - - - - -
04/09:00am 26.1 WNW 2 3 1016.0 - - - - - - - - -
04/08:30am 24.9 NW 4 4 1015.8 - - - - - - - - -
04/08:00am 24.6 NNW 2 3 1015.4 - - - - - - - - -
04/07:30am 24.4 NW 2 3 1015.1 - - - - - - - - -
04/07:00am 24.5 WNW 4 5 1014.9 - - - - - - - - -
04/06:30am 24.6 WNW 3 4 1014.4 - - - - - - - - -
04/06:00am 24.7 NW 5 6 1013.9 - - - - - - - - -
04/05:30am 24.6 NW 4 5 1013.6 - - - - - - - - -
04/05:00am 24.6 W 3 6 1013.3 - - - - - - - - -

Other Formats:

Comma delimited format used in spreadsheet applications
http://www.bom.gov.au/fwo/IDQ60701/IDQ60701.94378.axf

JavaScript Object Notation format (JSON) in row-major order
http://www.bom.gov.au/fwo/IDQ60701/IDQ60701.94378.json